Location: Carrières
(48.9495°N, 2.0407°E)
Time: 18:05:25
(UTC+00:00)

Cosmos 2369 - Visible Passes

Search period start: 01 October 2023 00:00
Search period end: 11 October 2023 00:00
Orbit: 838 x 856 km, 71.0° (Epoch: 30 September)

Date Brightness Start Highest point End Pass type
(mag) Time Alt. Az. Time Alt. Az. Time Alt. Az.
01 Oct 6.2 18:00:22 10° WNW 18:03:42 16° NNW 18:07:02 10° N visible
01 Oct 6.3 21:36:50 10° N 21:38:02 11° NNE 21:38:24 11° NNE visible
01 Oct 6.3 23:19:03 10° NNW 23:20:17 16° N 23:20:17 16° N visible
02 Oct 6.3 21:23:29 10° NNE 21:24:34 10° NNE 21:24:57 10° NNE visible
02 Oct 6.3 23:05:38 10° NNW 23:06:51 16° N 23:06:51 16° N visible
03 Oct 6.2 21:10:09 10° NNE 21:11:05 10° NNE 21:11:32 10° NNE visible
03 Oct 6.3 22:52:12 10° NNW 22:53:26 16° N 22:53:26 16° N visible
04 Oct 6.2 20:56:49 10° NNE 20:57:38 10° NNE 20:58:08 10° NNE visible
04 Oct 6.2 22:38:47 10° NNW 22:40:03 16° N 22:40:03 16° N visible
05 Oct 6.2 20:43:31 10° NNE 20:44:10 10° NNE 20:44:46 10° NNE visible
05 Oct 6.2 22:25:21 10° NNW 22:26:41 16° N 22:26:41 16° N visible
06 Oct 6.2 20:30:19 10° NNE 20:30:41 10° NNE 20:31:03 10° NNE visible
06 Oct 6.2 22:11:55 10° NNW 22:13:20 16° N 22:13:20 16° N visible
07 Oct 6.1 21:58:30 10° NNW 21:59:59 17° N 21:59:59 17° N visible
08 Oct 6.1 21:45:03 10° NNW 21:46:41 17° N 21:46:41 17° N visible
09 Oct 6.0 21:31:38 10° NNW 21:33:23 18° N 21:33:23 18° N visible
10 Oct 5.9 21:18:12 10° NNW 21:20:05 18° N 21:20:05 18° N visible
